Location: Kavakdibi
(37.2390°N, 29.8736°E)
Time: 04:13:08
(UTC+00:00)

Daily predictions for brighter satellites

Satellite Brightness Start Highest point End
(mag) Time Altitude Azimuth Time Altitude Azimuth Time Altitude Azimuth
ACS3 Solar Sail 3.6 00:00:16 10° NNW 00:03:12 14° WNW 00:04:47 13° W
Cosmos 921 Rocket 3.1 00:04:35 58° WNW 00:04:35 58° WNW 00:08:42 10° N
COSMOS 2455 3.9 00:04:46 26° W 00:06:52 33° NW 00:12:16 10° N
IDEFIX/ARIANE 42P 3.0 00:10:19 10° N 00:15:21 49° WNW 00:16:31 41° WSW
NOSS 3-1 (A) 4.3 00:14:35 21° WNW 00:16:17 26° NW 00:20:45 10° NNE
Cosmos 540 Rocket 4.1 00:12:41 10° N 00:17:39 52° ENE 00:22:31 10° SE
Cosmos 1674 Rocket 3.8 00:16:41 43° SSE 00:17:55 62° E 00:22:17 10° NNE
Meteor 1-11 4.1 00:18:08 45° SSW 00:19:53 76° W 00:25:32 10° N
Cosmos 1697 Rocket 4.4 00:17:25 14° SSE 00:20:58 26° ESE 00:25:30 10° NE
ADEOS II 3.7 00:18:34 10° NE 00:23:01 28° E 00:26:58 12° SSE
USA 234 4.2 00:19:44 10° ENE 00:25:38 36° SE 00:28:56 23° S
SL-19 R/B 3.8 00:27:01 77° WNW 00:27:01 77° WNW 00:30:10 10° NNW
Cosmos 1656 3.6 00:29:37 40° SW 00:31:36 75° WNW 00:37:07 10° NNE
Resurs 1-4 Rocket 2.6 00:27:55 10° NNE 00:33:05 56° E 00:36:11 24° S
Cosmos 2251 Rocket 3.8 00:30:37 30° S 00:33:11 62° ESE 00:38:29 10° NNE
Okean 1 Rocket 4.1 00:33:18 10° N 00:37:25 42° E 00:41:25 10° SSE
Cosmos 1605 Rocket 4.0 00:31:52 10° N 00:38:10 86° E 00:43:05 17° S
H-2A R/B 2.7 00:34:04 10° NNE 00:39:10 51° E 00:42:35 20° S
Meteor 2-21 4.5 00:35:33 26° S 00:39:18 85° E 00:45:32 10° N
Cosmos 1346 Rocket 4.3 00:40:44 20° WNW 00:40:44 20° WNW 00:43:16 10° NNW
Cosmos 371 Rocket 4.2 00:44:35 28° WSW 00:46:04 34° WNW 00:50:28 10° N
Cosmos 1763 Rocket 3.3 00:44:12 10° NNW 00:49:13 68° WSW 00:52:45 19° S
Cosmos 1535 Rocket 4.5 00:48:07 10° NNW 00:54:20 66° W 00:58:54 19° S
Cosmos 2297 Rocket 3.3 00:49:58 10° N 00:55:25 46° ENE 01:00:50 10° SE
Lacrosse 4 Rocket 3.2 00:54:58 10° WNW 00:56:30 16° W 00:56:30 16° W
Cosmos 676 Rocket 4.4 00:55:04 19° S 00:58:44 61° ESE 01:03:52 10° NNE
Cosmos 1025 Rocket 3.4 00:57:58 31° SW 00:59:32 46° W 01:03:44 10° N
MOZ.5/SAFIR/RUBIN 5/SL-8 3.8 00:57:19 24° S 00:59:59 59° W 01:04:32 10° NNW
BREEZE-M DEB (TANK) 2.8 00:52:24 10° NW 01:00:39 72° NNE 01:03:18 10° ESE
ADEOS Rocket 4.4 00:58:10 10° NNW 01:02:53 23° WNW 01:05:49 16° W
ATLAS 3B R/B 3.5 00:58:05 16° S 01:04:06 55° ESE 01:11:42 10° NE
CZ-2D R/B 2.1 01:00:10 10° N 01:05:37 81° WNW 01:09:30 19° SSW
Cosmos 1980 Rocket 4.0 01:01:12 10° SSE 01:05:50 26° ESE 01:10:29 10° NE
DMSP B5D2-2 4.2 01:04:31 16° S 01:08:33 56° W 01:13:44 10° NNW
NOSS 2-2 (C) 3.8 01:06:25 10° NNW 01:10:35 90° N 01:16:30 10° SSE
ALOS 2.4 01:13:42 10° N 01:18:08 54° WNW 01:21:08 20° SW
ARGOS 3.7 01:14:31 10° NNE 01:19:48 56° E 01:25:04 10° S
Spot 2 4.4 01:15:36 10° SSE 01:19:51 64° ENE 01:23:57 10° N
Cosmos 468 Rocket 3.8 01:14:57 10° NNW 01:20:03 75° WSW 01:25:08 10° S
Cosmos 1153 Rocket 4.4 01:18:01 10° N 01:24:11 73° W 01:30:16 10° S
Cosmos 2123 Rocket 4.5 01:18:00 10° S 01:24:13 64° E 01:30:28 10° NNE
Cosmos 2292 Rocket 3.3 01:26:07 24° SW 01:27:18 35° W 01:30:12 10° N
Cosmos 1455 Rocket 3.0 01:26:21 10° N 01:30:40 87° E 01:35:00 10° S
Cosmos 1727 Rocket 4.1 01:27:52 13° SSW 01:33:29 58° W 01:39:35 10° N
SeaSat 1 2.4 01:29:04 10° SSE 01:33:57 75° WSW 01:38:51 10° NNW
Cosmos 2084 Rocket 3.9 01:32:00 17° WSW 01:34:44 44° NW 01:38:37 10° NNE
Envisat 4.2 01:30:35 10° NNW 01:34:49 28° WNW 01:38:16 14° WSW
CENTAUR R/B 3.9 01:26:15 10° NNW 01:34:52 67° NE 01:44:22 10° SE
USA 229 DEB 3.5 01:30:52 16° SW 01:35:38 68° NW 01:42:05 10° NNE
USA 229 3.5 01:30:52 16° SW 01:35:40 69° NW 01:42:08 10° NNE
Okean 2 Rocket 3.9 01:33:42 10° NNW 01:37:35 32° W 01:41:00 12° SSW
SJ 16-02 3.5 01:41:06 10° WNW 01:42:05 11° WNW 01:43:05 10° NW
Gbstr 26 Del rocket 4.4 01:37:29 13° WSW 01:43:39 73° NW 01:51:27 10° NE
SL-16 R/B 3.3 01:39:24 10° SSE 01:45:26 56° ENE 01:51:27 10° N
Cosmos 968 Rocket 3.5 01:41:29 10° SSW 01:46:41 78° WNW 01:51:57 10° NNE
Cosmos 292 Rocket 3.9 01:43:43 11° SSW 01:48:13 61° WNW 01:52:55 10° N
Cosmos 1459 Rocket 4.0 01:44:16 10° N 01:50:29 81° W 01:56:45 10° S
Cosmos 2173 Rocket 4.0 01:45:08 10° N 01:51:26 74° W 01:57:35 10° S
Cosmos 1862 3.5 01:50:49 10° SSW 01:54:11 42° W 01:57:35 10° N
METEOR-M 4.5 01:49:43 10° N 01:54:52 50° WNW 01:59:59 10° SW
Cosmos 841 Rocket 3.4 01:50:19 10° NNW 01:55:31 75° WSW 02:00:38 10° S
NOSS 2-2 (E) 4.1 01:52:11 10° NNW 01:56:18 74° ENE 02:02:06 10° SE
Cosmos 2100 Rocket 4.1 01:53:36 10° NNW 01:59:45 60° W 02:05:48 10° S
Delta 2 Rocket 3.1 01:59:06 11° SW 02:01:34 35° SSE 02:04:07 10° E
ADEOS II 3.0 01:57:55 10° N 02:02:30 32° WNW 02:07:03 10° SW
Cosmos 2016 Rocket 4.2 01:56:42 10° N 02:02:55 79° E 02:09:12 10° S
SL-08 RB Rocket 3.7 01:58:55 10° NNE 02:03:30 89° W 02:08:00 10° SSW
Cosmos 1697 Rocket 3.4 01:59:24 10° SW 02:04:38 39° WNW 02:09:53 10° N
USA 234 3.6 02:02:22 10° NE 02:08:46 59° NW 02:15:09 10° WSW
Cosmos 2227 Rocket 2.5 02:03:31 10° NNW 02:09:11 76° ENE 02:14:48 10° SSE
Cosmos 1725 Rocket 4.0 02:04:51 10° N 02:11:05 81° W 02:17:20 10° S
